Regional Weather Roundup
Issued by NWS

Home | Current Version | Previous Version | Graphics & Text | Print | Product List | Glossary On
Versions: 1 2 3 4 5 6 7 8 9 10 11 12 13 14 15 16 17 18 19 20 21 22 23 24 25 26 27 28 29 30 31 32 33 34 35 36 37 38 39 40 41 42 43 44 45 46 47 48 49 50
000
ASUS45 KBOI 042010
RWRID

IDAHO REGIONAL WEATHER ROUNDUP
NATIONAL WEATHER SERVICE BOISE ID
200 PM MDT SAT JUL 04 2015

NOTE: "FAIR" INDICATES FEW OR NO CLOUDS BELOW 12000 FEET
WITH NO SIGNIFICANT WEATHER AND/OR OBSTRUCTIONS TO VISIBILITY

IDZ012-014-042100-
SOUTHWEST IDAHO


CITY           SKY/WX    TMP DP  RH WIND       PRES   REMARKS
BOISE          MOSUNNY   97  44  16 W12       29.84F HX  93
CALDWELL       MOSUNNY   97  45  16 SW7         N/A  HX  93
MOUNTAIN HOME  PTSUNNY   99  33   9 NW12      29.83F HX  93
$$

IDZ016-017-042100-
SOUTHCENTRAL IDAHO


CITY           SKY/WX    TMP DP  RH WIND       PRES   REMARKS
BURLEY         MOSUNNY   90  44  20 W10       29.92F
JEROME         MOSUNNY   91  40  16 SW8       29.93F
TWIN FALLS     MOSUNNY   97  39  13 NW10      29.91F HX  92
$$

IDZ019>023-042100-
SOUTHEAST IDAHO


CITY           SKY/WX    TMP DP  RH WIND       PRES   REMARKS
IDAHO FALLS    SUNNY     89  47  23 NW6       29.96F
POCATELLO      SUNNY     93  44  18 W13       29.95F
REXBURG        SUNNY     87  52  29 W7        29.97S
$$

IDZ006-010-011-018-031-032-042100-
CENTRAL IDAHO MOUNTAINS


CITY           SKY/WX    TMP DP  RH WIND       PRES   REMARKS
MCCALL         SUNNY     86  40  19 VRB3      29.97F
HAILEY         MOSUNNY   91  41  17 S16       29.99F
STANLEY          N/A     86  25  11 S10G20    30.09F
SALMON         MOSUNNY   88  43  20 NW8       29.86F
CHALLIS        MOSUNNY   90  34  13 VRB3      29.95F
$$

IDZ002-004-006-007-026-042100-
NORTHERN IDAHO


CITY           SKY/WX    TMP DP  RH WIND       PRES   REMARKS
LEWISTON       MOSUNNY   97  43  15 CALM      29.74F HX  93
LOWELL           N/A     96  51  21 CALM      29.72F HX  93
COEUR D`ALENE  SUNNY     90  52  27 W5        29.79F
MULLAN PASS    SUNNY     77  41  27 VRB7      30.05F
$$



USA.gov is the U.S. government's official web portal to all federal, state and local government web resources and services.